Stations météo

Publicité
Gourdon, France (7535): Température de l'air & dewpoint: 03.04.2020 12:00:00 - 09.04.2020 12:00:00 (CEST)Gourdon, France (7535): Température de l'air 5cm: 03.04.2020 12:00:00 - 09.04.2020 12:00:00 (CEST)Gourdon, France (7535): Température de l'air -20cm & Température de l'air -100cm: 03.04.2020 12:00:00 - 09.04.2020 12:00:00 (CEST)Gourdon, France (7535): Vitesse du vent & gusts: 03.04.2020 12:00:00 - 09.04.2020 12:00:00 (CEST)Gourdon, France (7535): Direction du vent: 03.04.2020 12:00:00 - 09.04.2020 12:00:00 (CEST)Gourdon, France (7535): reduced air pressure: 03.04.2020 12:00:00 - 09.04.2020 12:00:00 (CEST)Gourdon, France (7535): visibility: 03.04.2020 12:00:00 - 09.04.2020 12:00:00 (CEST)Gourdon, France (7535): Ensoleillement: 03.04.2020 12:00:00 - 09.04.2020 12:00:00 (CEST)Gourdon, France (7535): Quantités de précipitations: 03.04.2020 12:00:00 - 09.04.2020 12:00:00 (CEST)
Date & Time tt [°C] td [°C] tt 5cm [°C] tt -20cm [°C] tt -100cm [°C] ff [km/h] ff [knt] fx [km/h] fx [knt] dd ppp [hPa] vv [km] sd [min] rr [mm]
09.04.2020 12:00:00 19,9 4,0 27,3 12,7 12,2 10 6 19 10 SE 1021,6 20 60 0,0
09.04.2020 11:00:00 18,7 2,9 22,9 12,7 12,1 5 3 12 7 ESE 1022,3 20 60 0,0
09.04.2020 10:00:00 16,1 4,8 15,2 12,8 12,2 6 3 13 7 E 1022,4 20 60 0,0
09.04.2020 09:00:00 12,5 3,4 4,6 13,0 12,1 3 2 6 4 ESE 1022,7 20 60 0,0
09.04.2020 08:00:00 10,0 1,6 2,1 13,2 12,1 4 2 5 3 ESE 1022,7 20 18 0,0
09.04.2020 07:00:00 9,6 1,5 3,1 13,3 12,1 4 2 11 6 ESE 1022,3 20 0 0,0
09.04.2020 06:00:00 9,7 1,8 3,7 13,4 12,1 5 3 12 6 E 1022,4 20 0 0,0
09.04.2020 05:00:00 10,1 2,4 4,9 13,5 12,0 4 2 10 6 SSE 1022,5 20 0 0,0
09.04.2020 04:00:00 11,1 2,4 7,2 13,7 12,0 8 4 16 9 ESE 1022,4 20 0 0,0
09.04.2020 03:00:00 11,9 2,6 8,8 13,8 12,0 9 5 18 10 ESE 1022,6 20 0 0,0
09.04.2020 02:00:00 12,9 2,4 10,1 14,0 12,0 11 6 19 10 ESE 1022,9 20 0 0,0
09.04.2020 01:00:00 13,3 3,1 10,1 14,1 12,0 10 5 19 11 ESE 1023,1 20 0 0,0
09.04.2020 00:00:00 14,0 3,2 11,2 14,3 12,1 12 6 17 9 SE 1023,2 20 0 0,0
08.04.2020 23:00:00 14,7 3,5 10,9 14,3 12,0 10 5 16 9 ESE 1022,9 20 0 0,0
08.04.2020 22:00:00 15,2 3,6 10,5 14,4 12,0 9 5 14 8 ESE 1022,7 20 0 0,0
08.04.2020 21:00:00 16,4 3,8 10,3 14,4 12,0 7 4 12 7 ESE 1022,3 20 0 0,0
08.04.2020 20:00:00 18,4 3,8 14,3 14,3 12,0 6 3 18 10 SSE 1021,8 20 18 0,0
08.04.2020 19:00:00 20,2 5,0 26,3 14,1 12,0 8 4 23 12 SE 1021,5 20 60 0,0
08.04.2020 18:00:00 20,7 4,7 29,8 13,9 12,0 10 6 24 13 ESE 1021,2 20 60 0,0
08.04.2020 17:00:00 21,4 5,7 29,0 13,6 12,0 4 2 20 11 SSE 1021,7 20 60 0,0
08.04.2020 16:00:00 20,2 6,5 28,2 13,3 12,0 10 6 25 14 S 1022,4 20 48 0,0
08.04.2020 15:00:00 20,9 5,3 23,3 13,1 12,0 16 9 31 17 SE 1022,8 20 58 0,0
08.04.2020 14:00:00 17,9 4,1 21,5 13,0 12,0 11 6 22 12 SSE 1023,8 20 16 0,0
08.04.2020 13:00:00 17,7 5,0 17,5 12,9 11,9 8 5 23 12 ESE 1024,2 20 17 0,0
08.04.2020 12:00:00 15,5 0,9 17,5 12,8 11,9 14 8 26 14 SSE 1025,0 20 9 0,0
08.04.2020 11:00:00 15,7 0,7 15,9 12,8 11,9 11 6 22 12 SSE 1025,0 20 6 0,0
08.04.2020 10:00:00 13,9 1,5 13,0 12,9 11,9 6 4 14 8 SE 1025,1 20 0 0,0
08.04.2020 09:00:00 11,9 2,3 10,5 13,0 11,9 5 3 8 4 SE 1025,2 20 0 0,0
08.04.2020 08:00:00 11,8 -0,4 9,8 13,0 11,9 4 2 8 5 SSW 1025,0 20 0 0,0
08.04.2020 07:00:00 12,2 -1,0 10,5 13,1 11,9 6 4 16 8 SE 1024,6 20 0 0,0
08.04.2020 06:00:00 12,3 -2,4 9,3 13,2 11,9 7 4 12 6 ESE 1024,3 20 0 0,0
08.04.2020 05:00:00 12,2 -1,4 7,7 13,3 11,8 4 2 14 7 SE 1024,6 20 0 0,0
08.04.2020 04:00:00 12,3 -0,6 7,6 13,4 11,8 10 5 17 9 ESE 1024,6 20 0 0,0
08.04.2020 03:00:00 13,2 -1,2 11,3 13,5 11,8 7 4 18 10 ESE 1024,9 19 0 0,0
08.04.2020 02:00:00 13,8 -1,4 12,4 13,6 11,8 13 7 24 13 SE 1025,2 20 0 0,0
08.04.2020 01:00:00 14,3 -1,0 12,4 13,7 11,8 13 7 24 13 ESE 1024,9 20 0 0,0
08.04.2020 00:00:00 14,9 -1,3 13,2 13,8 11,8 16 8 34 18 SE 1024,9 20 0 0,0
07.04.2020 23:00:00 15,6 -1,1 13,5 13,9 11,8 13 7 28 15 ESE 1024,9 20 0 0,0
07.04.2020 22:00:00 16,5 -1,2 14,6 13,9 11,8 16 9 27 15 SE 1024,8 20 0 0,0
07.04.2020 21:00:00 17,5 1,0 15,6 13,9 11,8 15 8 31 17 SE 1024,3 20 2 0,0
07.04.2020 20:00:00 18,7 2,5 17,6 13,9 11,8 16 8 31 17 SE 1023,6 20 0 0,0
07.04.2020 19:00:00 19,6 2,9 20,2 13,7 11,8 13 7 29 16 ESE 1023,1 20 0 0,0
07.04.2020 18:00:00 19,9 2,3 20,6 13,5 11,8 19 10 35 19 SE 1022,9 20 0 0,0
07.04.2020 17:00:00 20,9 1,7 23,4 13,3 11,7 19 10 35 19 SSE 1022,8 20 24 0,0
07.04.2020 16:00:00 21,7 1,9 25,9 13,0 11,8 17 9 35 19 SSE 1022,6 20 48 0,0
07.04.2020 15:00:00 21,9 3,0 25,7 12,7 11,7 14 7 30 16 ESE 1022,9 20 26 0,0
07.04.2020 14:00:00 21,1 2,8 27,1 12,5 11,7 14 8 37 20 SE 1023,5 20 52 0,0
07.04.2020 13:00:00 21,0 3,2 21,7 12,4 11,7 12 6 36 20 SSE 1023,9 20 50 0,0
07.04.2020 12:00:00 17,9 1,8 21,2 12,3 11,7 21 11 43 23 SE 1024,6 20 31 0,0
07.04.2020 11:00:00 17,8 1,7 14,7 12,4 11,7 22 12 39 21 SE 1024,6 20 32 0,0
07.04.2020 10:00:00 14,1 1,4 12,8 12,4 11,7 12 7 27 14 ESE 1025,1 20 0 0,0
07.04.2020 09:00:00 12,8 0,5 10,3 12,5 11,7 11 6 21 11 ESE 1025,1 20 5 0,0
07.04.2020 08:00:00 12,2 -0,4 10,1 12,6 11,7 9 5 21 11 ESE 1025,1 20 0 0,0
07.04.2020 07:00:00 12,4 -0,2 10,5 12,7 11,7 10 5 17 9 E 1024,8 20 0 0,0
07.04.2020 06:00:00 12,4 -0,2 10,3 12,8 11,7 8 4 15 8 E 1024,7 20 0 0,0
07.04.2020 05:00:00 12,4 -0,2 9,4 12,8 11,6 8 5 14 8 ESE 1024,9 20 0 0,0
07.04.2020 04:00:00 12,6 0,7 9,1 12,9 11,6 6 3 12 6 E 1025,2 20 0 0,0
07.04.2020 03:00:00 13,0 0,0 9,6 13,0 11,6 3 2 14 8 SE 1025,3 20 0 0,0
07.04.2020 02:00:00 13,7 0,3 10,7 13,1 11,6 5 3 13 7 ESE 1025,3 20 0 0,0
07.04.2020 01:00:00 14,3 0,2 12,0 13,2 11,6 9 5 17 9 ESE 1025,1 20 0 0,0
07.04.2020 00:00:00 14,7 0,1 12,6 13,3 11,6 10 5 19 10 ESE 1024,8 20 0 0,0
06.04.2020 23:00:00 15,4 0,4 13,7 13,3 11,6 11 6 22 12 ESE 1024,7 20 0 0,0
06.04.2020 22:00:00 15,8 0,4 12,3 13,3 11,6 11 6 22 12 SE 1024,6 20 0 0,0
06.04.2020 21:00:00 16,8 -0,4 15,1 13,4 11,6 13 7 22 12 SE 1023,9 20 0 0,0
06.04.2020 20:00:00 17,9 1,4 16,3 13,3 11,6 8 5 20 11 SSE 1023,1 20 0 0,0
06.04.2020 19:00:00 18,6 2,0 17,8 13,1 11,6 10 5 18 10 SSE 1022,3 20 0 0,0
06.04.2020 18:00:00 19,1 1,6 19,5 13,0 11,6 10 5 21 12 SE 1021,7 20 0 0,0
06.04.2020 17:00:00 20,1 1,0 21,7 12,7 11,6 12 7 24 13 SE 1021,4 20 9 0,0
06.04.2020 16:00:00 19,8 1,2 21,8 12,4 11,5 13 7 29 16 S 1021,3 20 10 0,0
06.04.2020 15:00:00 20,1 1,5 25,8 12,2 11,5 13 7 31 17 SE 1021,3 20 30 0,0
06.04.2020 14:00:00 20,1 1,5 25,3 12,0 11,5 16 9 39 21 SE 1021,3 20 56 0,0
06.04.2020 13:00:00 18,7 1,2 18,6 11,9 11,5 22 12 37 20 SE 1021,5 20 28 0,0
06.04.2020 12:00:00 16,5 -0,7 17,1 11,8 11,5 21 11 40 22 SSE 1021,8 20 4 0,0
06.04.2020 11:00:00 15,4 -1,2 16,4 11,8 11,5 22 12 42 23 SSE 1021,9 20 24 0,0
06.04.2020 10:00:00 15,4 0,0 13,3 11,8 11,5 21 11 37 20 SE 1021,3 20 35 0,0
06.04.2020 09:00:00 13,1 -0,9 11,3 11,9 11,5 13 7 23 12 SSE 1021,0 20 0 0,0
06.04.2020 08:00:00 12,6 -2,1 11,3 11,9 11,5 9 5 30 16 SE 1019,9 20 0 0,0
06.04.2020 07:00:00 12,8 -2,3 11,7 12,0 11,5 13 7 40 21 SE 1019,0 20 0 0,0
06.04.2020 06:00:00 12,7 -2,8 11,6 12,0 11,4 14 8 40 21 SE 1018,5 20 0 0,0
06.04.2020 05:00:00 12,9 -2,6 11,6 12,2 11,4 15 8 36 20 SSE 1018,4 20 0 0,0
06.04.2020 04:00:00 13,0 -2,9 11,6 12,3 11,5 17 9 43 23 SSE 1018,1 20 0 0,0
06.04.2020 03:00:00 12,7 -2,8 10,4 12,4 11,4 18 10 42 23 SE 1018,1 20 0 0,0
06.04.2020 02:00:00 12,5 -2,6 10,7 12,5 11,4 19 11 50 27 SE 1018,2 20 0 0,0
06.04.2020 01:00:00 12,6 -2,1 10,8 12,7 11,4 24 13 46 25 SE 1017,6 20 0 0,0
06.04.2020 00:00:00 12,8 -1,2 10,5 12,8 11,4 19 11 43 23 SE 1017,6 20 0 0,0
05.04.2020 23:00:00 13,2 -1,9 10,1 12,9 11,4 16 9 37 20 SE 1017,4 20 0 0,0
05.04.2020 22:00:00 13,6 -2,0 11,0 12,9 11,4 17 9 36 19 SE 1017,1 20 0 0,0
05.04.2020 21:00:00 14,8 -1,8 11,6 13,0 11,4 13 7 31 17 SE 1016,3 20 0 0,0
05.04.2020 20:00:00 17,2 -1,5 15,0 12,9 11,4 18 10 39 21 SE 1015,4 20 23 0,0
05.04.2020 19:00:00 19,1 -1,4 23,4 12,7 11,4 21 11 39 21 SE 1014,8 20 60 0,0
05.04.2020 18:00:00 20,3 0,1 26,7 12,4 11,4 22 12 40 21 ESE 1014,5 20 60 0,0
05.04.2020 17:00:00 21,0 0,2 28,7 12,1 11,4 25 13 47 26 SE 1014,7 20 60 0,0
05.04.2020 16:00:00 21,6 0,7 29,8 11,7 11,4 19 11 42 23 SSE 1014,9 20 60 0,0
05.04.2020 15:00:00 21,0 0,2 29,2 11,4 11,4 22 12 40 22 SSE 1015,2 20 60 0,0
05.04.2020 14:00:00 20,8 1,6 26,4 11,1 11,4 16 9 41 22 SSE 1015,9 20 60 0,0
05.04.2020 13:00:00 19,5 2,4 24,4 10,9 11,4 21 12 48 26 SSE 1016,3 20 60 0,0
05.04.2020 12:00:00 17,9 1,0 21,7 10,8 11,4 23 13 45 25 SE 1017,1 20 60 0,0
05.04.2020 11:00:00 16,8 2,0 18,4 10,9 11,3 16 8 37 20 SE 1017,5 20 60 0,0
05.04.2020 10:00:00 14,3 -0,2 13,4 11,0 11,3 18 10 37 20 SE 1017,7 20 60 0,0
05.04.2020 09:00:00 11,4 -0,8 1,9 11,1 11,3 9 5 18 10 ESE 1018,0 20 60 0,0
05.04.2020 08:00:00 8,5 -2,8 -0,9 11,3 11,3 5 3 10 5 ESE 1017,9 20 11 0,0
05.04.2020 07:00:00 7,5 -2,8 1,0 11,5 11,3 5 3 15 8 ESE 1017,6 20 0 0,0
05.04.2020 06:00:00 7,6 -1,4 1,9 11,6 11,3 8 5 14 8 ESE 1017,3 20 0 0,0
05.04.2020 05:00:00 8,6 -1,0 3,0 11,8 11,3 7 4 21 11 E 1017,2 20 0 0,0
05.04.2020 04:00:00 9,0 -0,1 6,4 11,9 11,3 12 7 25 13 ESE 1017,3 20 0 0,0
05.04.2020 03:00:00 8,8 0,2 6,0 12,1 11,3 13 7 24 13 ESE 1017,7 20 0 0,0
05.04.2020 02:00:00 8,7 0,6 5,4 12,3 11,3 13 7 20 11 SE 1018,4 20 0 0,0
05.04.2020 01:00:00 9,8 1,2 6,3 12,4 11,3 10 5 21 11 ESE 1018,4 20 0 0,0
05.04.2020 00:00:00 11,6 1,2 9,2 12,5 11,3 14 8 37 20 SE 1018,0 20 0 0,0
04.04.2020 23:00:00 13,6 0,6 10,7 12,6 11,3 21 12 36 20 SE 1017,4 20 0 0,0
04.04.2020 22:00:00 15,3 0,3 11,6 12,7 11,3 19 10 29 16 SE 1016,8 20 0 0,0
04.04.2020 21:00:00 16,8 -0,4 8,3 12,6 11,3 14 7 23 13 ESE 1015,9 20 0 0,0
04.04.2020 20:00:00 18,9 -2,1 12,5 12,5 11,3 8 4 18 10 ESE 1015,2 20 20 0,0
04.04.2020 19:00:00 20,5 -0,8 27,6 12,2 11,3 9 5 21 11 SE 1015,1 20 60 0,0
04.04.2020 18:00:00 21,0 0,2 31,1 11,9 11,2 8 5 22 12 ESE 1015,0 20 60 0,0
04.04.2020 17:00:00 21,1 1,4 30,4 11,5 11,3 7 4 20 11 S 1015,5 20 60 0,0
04.04.2020 16:00:00 20,7 1,5 29,5 11,1 11,3 5 3 20 11 ESE 1016,1 20 60 0,0
04.04.2020 15:00:00 19,1 2,4 30,8 10,7 11,3 5 3 20 11 E 1016,7 17 60 0,0
04.04.2020 14:00:00 18,3 0,4 28,3 10,4 11,3 8 4 21 11 ESE 1017,3 20 60 0,0
04.04.2020 13:00:00 17,2 2,0 26,1 10,2 11,3 6 3 21 11 ESE 1018,0 20 60 0,0
04.04.2020 12:00:00 16,3 3,0 22,8 10,1 11,2 9 5 26 14 SE 1018,7 20 60 0,0
04.04.2020 11:00:00 14,8 3,3 17,7 10,1 11,2 7 4 18 10 ESE 1019,0 20 60 0,0
04.04.2020 10:00:00 11,7 1,9 11,1 10,2 11,2 9 5 24 13 ESE 1019,2 20 60 0,0
04.04.2020 09:00:00 8,7 0,9 5,0 10,3 11,2 13 7 29 16 ESE 1019,5 20 60 0,0
04.04.2020 08:00:00 6,7 0,1 3,1 10,4 11,2 12 7 21 11 ESE 1019,5 20 10 0,0
04.04.2020 07:00:00 6,8 0,0 3,1 10,6 11,2 8 5 21 12 ESE 1019,1 20 0 0,0
04.04.2020 06:00:00 6,0 0,1 1,6 10,7 11,2 11 6 17 9 SE 1018,8 20 0 0,0
04.04.2020 05:00:00 6,0 -0,1 0,9 10,9 11,2 6 3 14 7 E 1018,8 20 0 0,0
04.04.2020 04:00:00 6,3 0,0 0,6 11,0 11,2 6 3 16 8 E 1019,0 20 0 0,0
04.04.2020 03:00:00 6,4 -0,1 0,3 11,2 11,2 8 4 14 8 ENE 1019,1 20 0 0,0
04.04.2020 02:00:00 6,5 0,2 0,0 11,4 11,2 7 4 15 8 E 1019,2 20 0 0,0
04.04.2020 01:00:00 7,6 0,6 0,5 11,5 11,2 6 4 14 8 NE 1019,1 20 0 0,0
04.04.2020 00:00:00 8,8 1,0 2,9 11,7 11,2 7 4 16 9 NNE 1018,9 20 0 0,0
03.04.2020 23:00:00 9,8 1,2 3,9 11,8 11,2 4 2 12 7 NNW 1018,8 20 0 0,0
03.04.2020 22:00:00 10,9 0,6 2,5 11,8 11,2 7 4 20 11 NNW 1018,6 20 0 0,0
03.04.2020 21:00:00 12,3 0,1 4,4 11,8 11,2 5 3 11 6 WNW 1017,8 20 0 0,0
03.04.2020 20:00:00 14,4 0,6 10,9 11,7 11,2 6 3 15 8 NW 1017,5 20 20 0,0
03.04.2020 19:00:00 16,0 0,5 23,1 11,5 11,2 7 4 19 10 NW 1017,0 20 60 0,0
03.04.2020 18:00:00 16,0 0,9 25,7 11,2 11,2 7 4 20 11 NNW 1016,9 20 60 0,0
03.04.2020 17:00:00 15,6 0,2 26,9 10,9 11,2 8 5 23 12 NW 1017,1 20 60 0,0
03.04.2020 16:00:00 14,7 0,5 28,4 10,5 11,2 9 5 22 12 NNE 1017,6 20 60 0,0
03.04.2020 15:00:00 13,9 1,8 25,7 10,2 11,2 11 6 25 13 N 1017,9 20 60 0,0
03.04.2020 14:00:00 13,0 0,0 23,5 10,0 11,2 8 5 24 13 NNW 1018,6 20 60 0,0
03.04.2020 13:00:00 11,6 0,7 22,5 9,8 11,2 9 5 18 10 N 1019,1 20 60 0,0
03.04.2020 12:00:00 10,0 0,8 16,4 9,8 11,2 8 4 16 8 NW 1019,5 20 60 0,0

tt = Température de l'air
td = dewpoint
tt 5cm = Température de l'air 5cm
tt -20cm = Température de l'air -20cm
tt -100cm = Température de l'air -100cm
ff = Vitesse du vent
fx = gusts
dd = Direction du vent
ppp = reduced air pressure
vv = visibility
sd = Ensoleillement
rr = Quantités de précipitations

stations d'obs. à proximité